DEIMOS-1

Last updated on Sun Dec 14 2025 00:02:31 GMT+0000 (Coordinated Universal Time)

1 35681U 09041A 25347.32479101 .00001172 00000+0 18147-3 0 9999 2 35681 97.7151 147.9007 0002745 79.1520 280.9999 14.74954265879484
UTC large
Height (km)
Speed (km/s)
/
Latitude / Longitude
Inclination (degrees)
Orbital Period (minutes)
Azimuth
Elevation
Range (km)
Doppler Factor

Next 0 passes for location: London (51.5072 / 0.1276)

Sorry there are no passes over London.